+ View the NASA Portal
+ Center for Near-Earth Object Studies
IMPORTANT:
The SSD Announcement email list is now available. Major changes are coming in the near future, including possible hostname and/or URL changes. To be notified of such changes, subscribe to this email list.
Please visit
this page
for more details.
Don't show this message again
JPL Small-Body Database Browser
Search:
[
help
]
379001 (2008 UE335)
Classification:
Main-belt Asteroid
SPK-ID:
2379001
[
Ephemeris
|
Orbit Diagram
|
Orbital Elements
|
Mission Design
|
Physical Parameters
|
Discovery Circumstances
|
Close-Approach Data
]
[ show orbit diagram ]
Orbital Elements at Epoch 2458600.5 (2019-Apr-27.0) TDB
Reference:
JPL 15
(heliocentric ecliptic J2000)
Element
Value
Uncertainty (1-sigma)
Units
e
.06416105200791104
7.5853e-08
a
3.073089310844963
5.2792e-08
au
q
2.875916667746884
2.2619e-07
au
i
8.105389258029312
9.073e-06
deg
node
18.49328370729229
3.866e-05
deg
peri
158.7965585989313
6.9568e-05
deg
M
225.9356354022352
5.6854e-05
deg
t
p
2459333.277377631057
(2021-Apr-28.77737763)
0.00031662
TDB
period
1967.710485472129
5.39
5.0705e-05
1.388e-07
d
yr
n
.1829537437839196
4.7144e-09
deg/d
Q
3.270261953943042
5.6179e-08
au
Orbit Determination Parameters
# obs. used (total)
142
data-arc span
4987 days (13.65 yr)
first obs. used
2005-03-16
last obs. used
2018-11-10
planetary ephem.
DE431
SB-pert. ephem.
SB431-N16
condition code
0
norm. resid. RMS
.71035
source
ORB
producer
Otto Matic
solution date
2019-Jul-14 11:39:23
Additional Information
Earth MOID
= 1.88097 au
Jupiter MOID
= 1.69018 au
T_jup
= 3.212
[ show covariance matrix ]
[
Ephemeris
|
Orbit Diagram
|
Orbital Elements
|
Mission Design
|
Physical Parameters
|
Discovery Circumstances
|
Close-Approach Data
]
Physical Parameter Table
Parameter
Symbol
Value
Units
Sigma
Reference
Notes
absolute magnitude
H
16.3
n/a
MPO413413
379001 (2008 UE335)
Discovered 2005-Mar-16 by Mt. Lemmon Survey at Mount Lemmon
Reference:
Last Updated:
2013-11-20
[ show close-approach data ]
[
Ephemeris
|
Orbit Diagram
|
Orbital Elements
|
Mission Design
|
Physical Parameters
|
Discovery Circumstances
|
Close-Approach Data
]
2019-Dec-16 08:27 UT
(server date/time)
Site Manager:
Ryan S. Park
Webmaster
:
Alan B. Chamberlin